Dewpoint
26 38 43 49 55 58 59 57 60 61 61 60 57 54 54 56 56 57 59 59 58 58 56 55 54 55 57 58 59 59 59 60 60 58 57 57 57 57 57 58 58 58 59
30 40 42 50 56 58 59 58 58 62 62 61 59 55 55 55 57 58 58 58 57 57 55 55 55 58 58 59 59 60 60 60 60 57 56 55 56 57 57 58 58 58 59
38 40 41 49 56 58 58 58 58 62 63 62 60 59 57 55 56 55 57 56 56 56 56 58 58 59 60 59 60 61 61 59 60 58 58 53 54 56 57 57 57 57 57
39 39 40 48 56 57 58 58 59 61 64 63 61 61 59 57 57 56 56 56 57 58 60 61 60 61 62 61 62 62 62 62 59 59 59 59 59 55 54 55 54 55 55
39 39 41 46 57 56 57 59 58 59 60 61 62 61 60 60 61 61 61 60 61 62 63 62 63 63 63 63 62 61 61 60 60 59 60 59 58 58 56 53 55 56 56
42 41 44 46 57 57 57 59 59 57 59 62 63 61 61 61 61 61 61 61 62 63 63 63 63 63 63 62 62 61 61 60 60 60 60 59 57 57 56 54 53 54 55
45 45 45 47 57 57 57 59 58 59 60 59 63 61 62 61 61 61 61 60 61 61 61 62 62 62 62 62 61 60 61 60 60 60 60 60 59 59 56 54 52 53 54
41 42 45 48 57 57 58 58 56 56 56 61 61 62 62 61 61 62 61 60 61 61 62 62 62 62 62 61 61 61 61 61 61 61 61 60 58 58 57 55 54 52 50
43 45 46 54 57 57 57 55 56 56 58 59 60 60 61 61 61 62 61 61 61 61 61 62 62 61 62 61 61 60 61 61 61 60 60 58 57 57 57 56 56 54 49
44 48 51 57 57 57 56 55 56 56 58 58 59 60 60 60 60 60 60 61 62 62 62 62 61 61 61 61 62 61 61 60 59 58 57 56 55 54 54 53 52 51 51
44 47 54 57 57 58 58 58 58 58 58 59 59 59 59 60 60 60 60 60 61 61 61 61 62 61 61 61 61 60 59 58 57 56 55 53 52 51 51 51 50 50 50
45 48 55 56 57 57 58 59 59 59 59 59 59 59 59 59 59 59 60 60 60 61 60 60 60 60 60 60 59 58 58 56 54 53 51 50 49 48 49 50 49 48 48
45 46 47 50 52 53 54 56 57 58 59 59 59 58 58 58 58 59 59 60 60 60 60 59 58 58 58 58 58 56 54 52 51 50 49 48 47 47 48 47 46 46 46
44 45 45 46 49 51 51 52 54 56 57 58 57 57 57 57 56 57 58 58 58 57 57 57 56 55 55 54 51 50 48 47 46 46 46 45 45 45 46 46 45 44 44
41 43 44 45 46 48 50 51 52 54 55 54 55 55 54 54 54 54 54 54 53 53 51 50 50 49 48 45 45 45 44 44 44 43 43 43 41 42 42 42 43 42 41
39 41 42 43 43 45 47 49 50 51 50 50 50 51 50 50 50 50 50 50 49 48 46 45 44 42 41 43 43 43 43 42 42 40 40 39 39 40 41 42 42 41 40
38 39 41 42 43 43 44 45 46 47 47 47 47 47 47 47 46 46 46 46 45 46 45 44 42 41 42 43 43 42 42 41 41 40 39 39 39 39 40 40 39 39 38
39 40 41 42 42 42 43 43 43 45 45 46 46 46 45 44 44 44 44 44 44 44 43 43 42 41 42 42 42 41 41 40 39 39 39 39 38 39 38 38 38 38 38
40 41 42 42 42 42 42 42 42 42 42 42 42 43 44 43 42 42 41 42 41 41 41 42 42 41 41 41 41 40 39 38 37 38 38 38 37 38 38 37 36 36 36
40 41 42 42 42 42 42 42 41 41 41 41 41 42 42 42 42 42 41 42 41 41 40 40 41 42 41 41 40 39 38 37 36 36 36 37 36 39 38 36 36 35 33
40 40 40 39 40 42 42 41 41 40 41 41 41 40 41 42 42 42 41 41 40 40 39 39 39 40 41 41 41 40 38 37 36 35 34 35 36 36 36 38 36 35 33
38 38 37 37 38 39 40 39 39 40 41 41 41 40 40 40 40 39 39 40 39 39 39 38 38 38 38 40 42 41 41 38 36 36 35 34 35 34 35 35 36 37 35
36 37 36 35 35 36 37 38 38 40 39 39 39 39 39 39 39 39 38 38 39 38 38 37 37 37 37 38 40 41 41 41 38 37 36 35 34 33 33 34 35 34 34
35 36 35 35 34 35 35 35 36 39 40 39 38 38 39 38 37 38 38 37 37 37 37 37 37 37 37 36 38 39 40 40 39 39 38 38 36 34 33 31 32 33 33
35 34 34 33 33 34 34 34 34 35 37 37 38 38 39 39 38 38 38 38 38 39 38 38 38 37 37 37 37 38 38 39 39 38 37 36 35 33 31 30 29 29 31
34 35 34 33 33 33 33 33 33 34 34 35 35 35 35 37 38 38 38 40 40 40 41 41 40 39 40 40 39 39 38 38 39 36 34 34 33 32 31 30 29 28 28
Wind_Speed
29 16 14 13 14 14 16 19 9 17 24 27 21 19 19 19 16 14 23 21 19 18 16 16 18 16 16 14 12 8 8 2 3 2 4 5 7 6 3 3 4 7 6
24 15 18 15 17 16 16 20 9 27 26 25 22 23 21 18 17 16 18 15 19 19 18 17 16 16 16 15 14 11 8 6 6 3 2 3 1 2 7 6 5 4 3
14 16 18 18 16 17 19 18 23 23 27 27 23 23 20 18 17 17 18 17 20 21 16 19 17 17 16 15 13 11 9 7 5 6 3 2 2 2 2 3 1 1 2
20 19 20 17 19 18 20 15 22 13 24 31 28 26 25 25 21 20 19 17 21 21 17 20 20 15 13 13 10 8 5 5 7 2 2 3 3 2 2 1 3 3 4
17 17 13 13 19 17 20 17 18 13 1 25 27 23 22 23 23 20 22 20 20 20 17 18 16 16 15 13 12 13 12 9 7 4 4 2 2 1 4 3 4 4 5
12 12 9 11 17 16 14 13 11 18 18 20 29 28 24 21 21 19 19 18 16 16 16 17 17 15 14 15 14 13 12 11 9 5 3 4 3 5 5 5 6 6 3
2 8 12 16 18 19 16 14 14 14 19 22 18 30 24 23 26 25 21 20 18 16 17 17 18 17 16 16 14 12 8 6 6 7 4 3 6 5 6 3 6 5 1
2 5 15 17 21 23 17 18 16 13 9 11 7 12 12 13 19 20 19 19 17 17 16 17 16 17 16 15 14 9 5 4 5 4 4 3 5 5 2 4 3 4 2
8 3 9 17 24 23 22 22 20 15 6 14 18 16 15 19 16 14 18 18 16 18 18 16 17 16 14 14 12 6 3 6 3 5 5 7 5 5 1 3 2 1 2
12 10 8 18 23 21 22 18 20 20 16 15 9 13 12 16 17 15 17 16 16 18 19 18 15 14 13 11 11 10 6 3 6 8 8 5 4 3 4 5 4 2 4
18 16 6 21 21 16 16 14 19 22 22 20 18 16 13 11 11 13 16 13 13 12 16 17 17 17 16 13 12 13 10 9 9 6 7 8 7 7 5 4 3 1 0
20 16 24 22 22 18 15 14 13 14 22 22 19 18 16 17 13 15 16 17 16 13 15 15 17 17 16 15 13 10 14 14 12 11 10 10 7 5 5 4 4 4 3
26 34 28 26 25 24 21 15 14 14 17 17 17 16 14 15 13 11 12 14 14 17 17 17 18 17 16 16 16 17 15 13 12 11 10 10 9 7 6 4 3 4 4
25 29 32 29 24 20 19 17 17 16 14 15 15 14 13 13 13 13 14 15 14 13 12 15 16 15 15 17 17 16 15 14 12 11 10 9 8 8 7 5 4 5 4
32 27 24 22 21 21 18 18 17 16 15 13 14 13 13 13 14 12 11 14 14 14 13 14 15 16 16 15 18 17 15 15 12 9 8 8 7 8 6 4 3 4 3
28 28 25 24 22 20 18 15 15 16 16 17 15 13 14 13 13 12 12 14 14 12 12 13 13 14 12 18 18 17 16 14 13 11 8 7 6 5 5 4 4 3 2
25 24 21 20 19 17 14 16 14 15 15 15 13 14 13 13 12 12 12 12 12 12 13 11 13 13 11 14 16 17 16 15 14 13 11 10 8 7 7 6 5 4 4
19 19 18 20 20 17 17 14 14 14 15 14 12 10 12 11 11 12 11 9 11 13 12 11 12 13 11 14 15 15 13 12 10 10 9 8 8 6 5 3 3 3 4
15 15 16 16 16 16 15 15 16 16 15 13 12 9 9 10 10 10 11 9 10 11 11 12 14 14 13 13 14 14 13 11 9 7 8 8 8 8 6 4 3 2 3
17 17 17 16 18 18 17 19 18 16 16 13 10 8 8 8 8 7 6 6 6 8 8 7 7 11 14 13 13 10 11 12 10 8 7 7 6 10 8 7 7 6 2
16 15 16 16 17 14 16 17 15 16 11 10 10 9 8 8 9 8 7 8 7 6 5 6 5 7 11 13 13 11 8 10 10 10 9 8 9 7 6 8 8 9 7
13 14 16 16 16 17 15 15 16 11 9 10 10 10 9 8 6 6 5 5 5 5 5 6 6 6 7 12 14 14 10 5 12 12 9 8 9 7 7 8 9 10 7
11 11 14 14 14 17 17 17 16 15 12 12 10 8 7 5 4 3 2 2 4 4 6 7 8 8 8 9 14 17 16 13 8 7 9 10 9 9 8 9 8 8 8
11 13 14 14 15 15 14 12 12 13 12 12 11 9 6 6 5 4 1 2 4 5 6 8 10 9 10 12 12 13 14 16 15 11 10 10 10 10 9 6 7 8 9
9 10 12 12 12 11 11 11 13 12 10 10 9 9 8 8 5 2 1 4 1 2 1 3 7 9 10 10 11 13 13 13 12 11 9 9 9 11 10 8 9 8 8
6 9 11 10 7 8 8 8 9 7 6 6 10 10 9 6 6 7 8 5 9 9 8 8 8 6 6 5 5 6 9 10 14 9 11 13 13 12 11 11 11 10 11
Wind_Direction
233 221 232 194 200 194 179 173 266 196 170 156 156 152 152 151 157 162 163 176 153 153 152 149 147 155 161 166 169 166 178 167 96 93 235 230 215 187 176 85 23 38 31
212 187 208 198 209 201 187 179 207 195 181 161 154 154 156 157 159 160 169 157 153 159 157 154 156 162 169 172 170 165 168 180 178 161 151 150 130 84 85 67 39 31 16
228 204 206 191 212 191 184 172 189 210 175 162 158 153 157 157 159 163 168 172 160 163 164 156 161 171 168 164 173 163 160 172 63 105 124 163 109 121 151 124 140 267 274
226 209 215 187 210 192 172 177 167 228 168 165 164 167 165 163 166 167 165 173 158 164 168 160 162 164 157 165 153 141 170 131 130 90 150 118 115 117 201 182 203 233 238
225 215 203 203 210 179 156 174 161 202 299 181 169 170 168 166 163 164 161 168 161 168 162 156 146 143 138 142 142 116 108 114 134 158 150 113 93 205 207 261 265 298 247
206 210 179 224 194 159 159 164 177 204 197 240 171 164 168 159 147 152 153 159 153 149 144 140 139 144 144 142 140 140 149 151 152 193 166 171 173 191 214 238 281 257 289
269 238 214 215 173 142 164 115 104 170 198 236 210 167 167 161 157 159 160 156 151 150 155 152 153 154 153 155 160 155 152 159 172 183 175 207 248 239 199 216 263 265 236
3 254 209 195 168 155 136 127 110 99 345 215 179 131 132 155 164 158 158 162 159 153 150 145 150 151 158 161 159 157 140 171 146 145 152 248 130 108 128 190 194 294 291
8 319 208 174 159 155 154 140 132 95 17 145 126 106 113 111 118 127 148 154 155 155 156 150 153 157 162 160 151 136 182 206 195 220 196 154 127 111 74 114 116 184 274
11 13 152 161 150 158 150 153 138 136 155 148 141 135 132 128 128 127 128 140 140 153 150 149 153 160 163 165 167 168 182 139 137 145 156 143 137 143 178 157 159 184 215
24 8 152 133 137 119 124 157 137 154 166 160 145 147 144 145 140 160 148 147 147 157 154 155 154 164 168 185 200 145 151 183 170 149 180 177 173 181 164 144 114 107 310
28 22 101 95 107 111 116 117 128 158 162 158 154 154 157 162 171 173 163 159 171 175 164 157 163 167 163 163 159 147 159 178 182 191 185 177 153 138 123 121 99 97 75
33 47 53 62 68 67 67 70 94 95 108 136 138 148 148 150 175 181 169 166 174 183 178 174 173 168 163 165 164 173 172 175 185 182 182 160 146 151 139 145 144 170 205
49 52 46 49 51 61 64 60 66 81 89 107 119 123 126 138 141 148 154 148 155 161 162 163 156 152 149 160 157 159 160 155 146 138 138 135 144 142 138 147 178 166 172
40 47 53 53 51 50 54 61 58 71 82 89 109 115 114 117 121 128 122 120 128 133 132 130 130 136 147 147 142 143 145 141 134 124 120 105 98 88 92 135 135 172 185
32 34 45 49 48 44 45 53 55 61 77 83 76 83 98 105 108 111 117 116 107 105 101 122 131 131 129 138 138 140 148 150 154 152 130 115 117 132 135 137 113 121 153
31 32 33 47 61 61 55 42 51 65 65 77 82 85 86 94 100 104 107 113 119 123 129 134 136 139 136 139 145 148 149 153 157 155 155 155 162 164 177 177 174 164 158
36 29 37 43 45 50 63 68 55 57 73 74 72 78 93 97 101 102 106 114 123 132 137 138 142 145 140 143 142 146 146 146 151 158 167 165 172 172 152 155 139 168 198
39 40 43 61 51 45 59 67 72 70 67 65 72 78 90 99 95 105 117 120 123 133 143 151 156 147 149 154 152 146 142 146 154 161 163 167 163 169 162 172 210 264 246
38 38 41 46 43 44 55 62 57 54 58 70 74 74 87 100 110 115 119 124 136 141 146 150 148 155 162 163 166 157 154 163 165 165 172 168 174 175 177 184 197 219 208
42 48 42 39 24 41 69 67 58 52 57 69 73 72 80 92 109 115 127 132 140 143 155 169 176 165 172 181 188 189 175 177 176 180 188 195 191 182 190 212 217 213 186
54 50 51 41 31 34 53 54 43 18 54 73 73 72 69 73 91 107 123 128 147 166 180 193 208 212 201 194 199 205 205 177 186 186 187 178 177 198 202 217 228 220 203
89 78 68 62 45 42 43 43 15 12 32 54 58 62 75 70 100 105 137 166 178 194 218 220 219 219 217 210 208 209 210 211 191 173 167 172 188 204 213 222 224 231 223
71 95 97 76 55 48 53 50 34 34 32 33 26 22 48 72 71 36 35 260 236 233 247 230 231 237 224 213 208 208 213 215 217 199 200 194 200 212 218 218 214 223 226
67 71 83 84 83 73 54 34 24 23 29 34 27 14 3 356 354 353 275 283 249 86 253 273 247 252 260 233 216 204 210 211 209 191 193 195 201 218 229 234 238 231 225
87 81 81 82 77 66 50 32 21 25 27 11 1 3 358 350 337 320 309 273 266 278 255 245 245 260 254 276 254 231 207 209 200 178 194 203 210 219 233 237 240 236 228